Flag for Mongolia Weather past 2 weeks in Ulaanbaatar, Mongolia

Now
82 °F

Passing clouds.


Feels Like: 80 °F
Forecast: 50 / 82 °F
Wind: 15 mph from Northwest

Location: Ulan-Bator

Current Time: Jul 2, 2015 at 6:08:08 PM

Latest Report: Jul 2, 2015 at 5:30 PM


Visibility: N/A

Pressure: 29.83 "Hg

Humidity: 19%

Dew point: 36 °F

Location of UlaanbaatarLocation

Historic Weather in Ulaanbaatar — Graph

°F

Ulaanbaatar temperature yesterday

Maximum temperature yesterday: 77 °F (at 5:00 PM)
Minimum temperature yesterday: 48 °F (at 4:00 AM)
Average temperature yesterday: 65 °F

Past Weeks' High & Low Weather Summary

 TemperatureHumidityPressure
High90 °F (Jun 26, 12:30 PM)88% (Jun 26, 10:30 PM)30.21 "Hg (Jun 26, 10:30 PM)
Low41 °F (Jun 29, 6:00 AM)9% (Jun 17, 7:00 PM)29.47 "Hg (Jun 26, 2:30 PM)
Average67 °F35%29.88 "Hg
* Reported Jun 17 4:30 PM — Jul 2 4:30 PM, Ulaanbaatar, Weather by CustomWeather, © 2015

Note: Actual official high and low records may vary slightly from our data, if they occured in-between our weather recording intervals... More about our weather records

Advertising

Ulaanbaatar weather history for previous 24 hours

 ConditionsComfort  
Time TempWeatherWind HumidityBarometerVisibility
4:30 PM
Thu, Jul 2
82 °FPassing clouds.8 mph19%29.86 "HgN/A
4:00 PM81 °FPassing clouds.10 mph21%29.86 "HgN/A
3:30 PM81 °FPassing clouds.10 mph23%29.86 "HgN/A
3:00 PM81 °FPassing clouds.15 mph23%29.89 "HgN/A
2:30 PM79 °FPassing clouds.17 mph26%29.89 "HgN/A
2:00 PM79 °FPassing clouds.17 mph24%29.89 "HgN/A
1:30 PM77 °FPassing clouds.10 mph28%29.92 "HgN/A
1:00 PM77 °FPassing clouds.13 mph26%29.92 "HgN/A
12:30 PM75 °FPassing clouds.15 mph27%29.92 "HgN/A
12:00 PM73 °FPassing clouds.13 mph29%29.92 "HgN/A
11:30 AM73 °FPassing clouds.13 mph31%29.95 "HgN/A
11:00 AM72 °FPassing clouds.13 mph33%29.95 "HgN/A
10:30 AM70 °FSunny.1 mph43%29.95 "Hg10 mi
10:00 AM66 °FSunny.1 mph52%29.95 "Hg10 mi
9:30 AM64 °FSunny.No wind52%29.95 "Hg10 mi
9:00 AM63 °FSunny.No wind56%29.95 "Hg10 mi
8:30 AM61 °FSunny.No wind59%29.95 "Hg10 mi
8:00 AM57 °FSunny.No wind67%29.95 "Hg10 mi
7:30 AM54 °FSunny.No wind72%29.95 "Hg10 mi
7:00 AM54 °FSunny.No wind72%29.95 "Hg10 mi
6:00 AM50 °FClear.1 mph76%29.95 "Hg10 mi
5:30 AM50 °FClear.1 mph76%29.92 "Hg10 mi
5:00 AM48 °FClear.3 mph76%29.92 "Hg10 mi
4:00 AM54 °FClear.1 mph67%29.92 "Hg10 mi
3:00 AM54 °FClear.3 mph67%29.92 "Hg10 mi
2:30 AM52 °FClear.3 mph67%29.92 "Hg10 mi
2:00 AM54 °FClear.No wind63%29.92 "Hg10 mi
1:30 AM55 °FClear.No wind59%29.92 "Hg10 mi
1:00 AM55 °FClear.3 mph59%29.92 "Hg10 mi
12:30 AM57 °FClear.1 mph55%29.89 "Hg10 mi
12:00 AM63 °FClear.No wind52%29.89 "Hg10 mi
11:30 PM
Wed, Jul 1
61 °FPassing clouds.3 mph55%29.89 "HgN/A
11:00 PM63 °FPassing clouds.6 mph52%29.89 "HgN/A
10:30 PM66 °FPassing clouds.6 mph46%29.86 "HgN/A
10:00 PM68 °FPassing clouds.13 mph43%29.86 "HgN/A
9:30 PM70 °FPassing clouds.15 mph40%29.86 "HgN/A
9:00 PM72 °FPassing clouds.13 mph36%29.86 "HgN/A
8:30 PM73 °FPassing clouds.10 mph33%29.83 "HgN/A
8:00 PM75 °FScattered clouds.15 mph36%29.83 "HgN/A
7:30 PM73 °FScattered clouds.10 mph38%29.83 "HgN/A
7:00 PM72 °FScattered clouds.13 mph38%29.83 "HgN/A
6:30 PM77 °FPassing clouds.15 mph34%29.83 "HgN/A
6:00 PM75 °FPassing clouds.20 mph29%29.80 "HgN/A
Weather by CustomWeather, © 2015

See weather overviewHow to use our weather pages